This is the latest recevied weather packets stored in our database for station/object KD0RIH. If no packets are shown the sender has not sent any weather packets the latest 10 day(s).
| Time | Temp. | Humidity | Pressure | Rain* | Wind** | Luminosity | Snow |
|---|---|---|---|---|---|---|---|
| 1777771137 | 15° C | 35% | 1017.8 hPa | 0 mm | - | 1 W/m² | - |
| 1777770834 | 15° C | 33% | 1017.8 hPa | 0 mm | - | 2 W/m² | - |
| 1777770531 | 15° C | 32% | 1017.9 hPa | 0 mm | - | 4 W/m² | - |
| 1777770228 | 15.56° C | 32% | 1017.8 hPa | 0 mm | - | 7 W/m² | - |
| 1777769925 | 15.56° C | 31% | 1017.9 hPa | 0 mm | - | 10 W/m² | - |
| 1777769622 | 15.56° C | 33% | 1017.8 hPa | 0 mm | - | 14 W/m² | - |
| 1777769318 | 16.11° C | 31% | 1017.9 hPa | 0 mm | - | 18 W/m² | - |
| 1777769016 | 16.11° C | 31% | 1018.1 hPa | 0 mm | - | 22 W/m² | - |
| 1777768713 | 16.11° C | 32% | 1017.8 hPa | 0 mm | - | 25 W/m² | - |
| 1777768410 | 16.67° C | 30% | 1017.8 hPa | 0 mm | - | 29 W/m² | - |
| 1777768107 | 16.67° C | 31% | 1018.1 hPa | 0 mm | - | 32 W/m² | - |
| 1777767804 | 16.67° C | 29% | 1017.9 hPa | 0 mm | - | 36 W/m² | - |
| 1777767500 | 17.22° C | 28% | 1017.9 hPa | 0 mm | - | 39 W/m² | - |
| 1777767197 | 17.22° C | 29% | 1017.9 hPa | 0 mm | - | 41 W/m² | - |
| 1777766894 | 17.22° C | 30% | 1017.6 hPa | 0 mm | - | 44 W/m² | - |
| 1777766592 | 17.22° C | 28% | 1017.8 hPa | 0 mm | - | 45 W/m² | - |
| 1777766289 | 17.22° C | 29% | 1018.2 hPa | 0 mm | - | 48 W/m² | - |
| 1777765986 | 17.78° C | 27% | 1018.1 hPa | 0 mm | - | 50 W/m² | - |
| 1777765682 | 17.78° C | 29% | 1017.9 hPa | 0 mm | - | 52 W/m² | - |
| 1777765379 | 18.33° C | 27% | 1018.1 hPa | 0 mm | - | 64 W/m² | - |
| 1777765075 | 18.33° C | 29% | 1018.1 hPa | 0 mm | - | 67 W/m² | - |
| 1777764773 | 17.78° C | 31% | 1018.2 hPa | 0 mm | - | 87 W/m² | - |
| 1777764469 | 17.22° C | 28% | 1018.2 hPa | 0 mm | - | 100 W/m² | - |
| 1777764166 | 17.78° C | 28% | 1017.9 hPa | 0 mm | - | 109 W/m² | - |
| 1777763862 | 18.89° C | 27% | 1017.9 hPa | 0 mm | - | 168 W/m² | - |
* Rain latest hour (hover to see other rain measurements)
** Current wind speed in m/s (hover to see current wind gust speed)